Location: Unspecified
(0.0000°N, 0.0000°E)
Time: 18:08:34
(UTC+00:00)

TIGRISAT - Visible Passes

Search period start: 18 January 2020 00:00
Search period end: 28 January 2020 00:00
Orbit: 604 x 690 km, 97.7° (Epoch: 17 January)

Date Brightness Start Highest point End Pass type
(mag) Time Alt. Az. Time Alt. Az. Time Alt. Az.
18 Jan ? 20:36:10 21° SSW 20:36:10 21° SSW 20:37:44 10° SSW visible
19 Jan ? 19:24:23 12° SE 19:24:23 12° SE 19:25:07 10° SE visible
19 Jan ? 21:02:06 12° SW 21:02:06 12° SW 21:02:31 10° SW visible
20 Jan ? 19:50:18 22° SSE 19:50:18 22° SSE 19:52:14 10° SSE visible
21 Jan ? 20:16:14 27° S 20:16:14 27° S 20:18:18 10° S visible
22 Jan ? 20:42:10 20° SW 20:42:10 20° SW 20:43:40 10° SSW visible
23 Jan ? 19:30:23 15° SE 19:30:23 15° SE 19:31:46 10° SE visible
23 Jan ? 21:08:06 10° WSW 21:08:06 10° WSW 21:08:11 10° WSW visible
24 Jan ? 19:56:19 25° SSE 19:56:19 25° SSE 19:58:29 10° S visible
25 Jan ? 20:22:15 27° SSW 20:22:15 27° SSW 20:24:22 10° SSW visible
26 Jan ? 20:48:12 18° SW 20:48:12 18° SW 20:49:34 10° SW visible
27 Jan ? 19:36:24 18° SE 19:36:24 18° SE 19:38:14 10° SSE visible
